Dewpoint
73 72 71 71 59 56 52 48 49 50 51 52 52 52 51 53 50 51 64 65 68 68 71 72 76 75 74 75 75 74 74 73 74 74 74 74 74 74 74 73 73 73 74 74 73 72 72 71 71
71 71 71 68 49 50 52 50 50 50 51 53 52 53 52 51 57 61 63 65 68 67 70 72 76 75 74 74 75 75 73 73 73 73 73 73 73 73 73 73 73 73 73 73 73 71 71 71 71
73 73 68 62 50 46 48 48 48 50 50 52 51 52 53 54 58 61 62 65 67 67 68 71 76 75 74 73 73 73 73 73 73 73 72 72 72 72 72 73 73 72 73 72 71 71 71 71 71
72 71 68 52 45 48 50 49 49 48 50 52 53 52 55 58 59 61 63 66 68 68 70 74 75 74 74 73 73 73 73 73 72 72 72 71 71 71 71 71 71 71 71 72 71 71 71 71 71
71 65 53 43 45 47 52 50 48 47 51 53 55 55 56 60 63 64 65 66 68 70 71 72 76 75 74 75 75 73 73 73 73 73 72 72 71 71 71 71 71 71 71 71 72 71 70 71 70
61 60 43 41 41 45 52 52 49 48 52 53 55 55 56 61 63 65 66 66 68 70 71 72 76 76 75 74 74 74 74 73 73 73 72 73 73 73 72 72 71 71 71 71 72 72 71 71 70
59 53 41 40 41 43 48 49 47 49 52 52 54 53 55 61 63 65 65 64 66 68 70 72 73 74 75 75 75 75 75 74 74 74 73 74 73 73 72 73 73 73 72 72 72 72 72 71 70
54 51 40 40 41 43 44 46 49 50 50 54 54 53 52 58 60 60 62 63 65 67 69 71 72 73 73 73 75 75 75 75 74 74 74 74 73 73 73 74 73 73 73 72 73 72 73 73 72
55 48 43 41 42 43 46 46 47 49 52 53 53 54 55 57 59 59 59 62 63 66 67 68 70 71 70 72 73 75 74 74 74 74 74 74 73 72 73 74 71 72 73 73 73 73 73 73 73
53 44 43 46 43 41 45 46 46 47 50 52 54 55 56 56 55 56 59 60 62 64 64 65 68 70 70 71 72 73 73 73 73 73 73 74 73 74 74 74 73 71 72 73 73 73 73 73 70
42 44 44 44 44 43 44 46 46 47 49 51 53 54 55 54 55 55 57 59 60 66 66 66 66 68 70 69 72 72 72 72 73 74 73 73 73 73 74 73 73 71 71 71 73 72 71 70 70
41 42 45 47 49 46 46 47 48 47 48 53 54 54 55 54 54 55 56 57 60 61 62 65 66 67 68 69 70 70 70 71 71 72 73 73 72 71 72 73 73 73 72 72 72 72 73 70 70
46 43 45 46 46 46 46 46 45 47 52 53 54 54 53 53 52 53 55 57 59 60 63 65 67 67 69 67 69 69 70 71 71 73 74 74 73 71 73 73 74 74 74 74 73 72 73 72 71
51 43 45 46 49 45 46 45 46 47 51 52 52 52 52 52 52 52 54 58 58 59 64 67 67 68 68 67 69 70 69 70 71 72 73 73 73 73 73 73 73 73 73 72 72 72 72 72 72
53 53 49 45 48 49 49 46 45 47 49 50 50 50 51 51 52 52 57 58 58 60 64 66 67 68 69 67 70 71 70 70 70 72 73 75 74 73 73 73 72 72 73 72 72 73 73 70 72
52 55 52 49 48 51 54 50 46 47 47 49 49 50 50 51 50 52 54 56 58 59 64 66 66 68 68 68 70 72 71 70 73 73 74 73 73 72 72 73 73 71 72 72 71 73 71 71 71
50 49 50 48 50 50 52 49 46 46 46 48 48 49 50 51 50 52 53 55 57 62 63 64 65 67 68 71 71 72 72 71 73 73 72 72 70 75 73 74 72 74 74 71 71 71 71 70 70
46 47 48 47 48 51 53 50 45 46 46 46 47 50 52 53 52 53 54 55 59 63 64 63 66 67 70 72 72 72 72 72 73 71 73 70 71 74 70 72 73 74 71 70 71 69 71 71 71
42 46 47 48 46 47 52 52 46 46 46 46 48 52 52 52 53 54 54 58 60 63 64 65 68 71 70 71 70 70 70 72 73 74 73 73 73 75 73 71 73 71 71 71 69 71 70 70 71
45 45 46 44 43 44 45 46 50 48 47 48 48 50 51 52 54 55 56 59 60 62 63 66 69 72 71 71 70 70 72 70 70 73 72 74 74 74 73 72 73 70 67 71 68 68 69 70 70
42 43 43 41 39 43 44 50 55 58 53 50 50 50 51 52 55 56 56 59 61 62 63 66 70 70 70 69 71 72 72 68 66 62 68 74 74 73 66 67 73 72 72 72 68 68 69 68 70
35 43 42 41 36 28 43 46 52 50 45 50 50 52 51 52 54 55 58 58 61 63 64 65 71 71 69 71 72 68 68 68 69 68 70 73 74 74 72 73 72 72 73 71 70 67 70 70 68
22 38 41 32 28 27 29 42 43 50 49 50 51 50 52 52 53 55 55 57 62 64 65 66 71 71 70 72 72 71 69 70 71 73 72 74 75 74 74 73 72 73 73 72 69 68 70 70 67
18 21 25 27 27 25 25 40 43 44 50 52 52 52 51 52 52 53 55 56 59 64 65 68 69 72 71 72 73 73 71 70 71 71 72 73 74 68 72 75 73 74 74 71 69 68 69 71 70
17 16 22 25 25 25 41 43 45 47 44 46 48 49 52 52 52 52 53 55 57 62 65 68 69 71 73 73 73 73 74 72 72 70 69 72 72 71 72 74 74 73 74 73 72 69 70 69 68
10 17 21 21 23 21 37 37 40 44 46 48 45 47 52 51 52 51 52 56 57 61 64 68 70 70 71 74 73 74 74 75 73 71 70 72 72 73 74 74 75 75 75 74 73 72 70 70 69
7 6 12 13 25 11 33 40 40 43 44 46 48 46 49 51 52 51 53 55 58 59 64 68 70 71 72 71 75 75 74 75 73 71 71 73 74 68 65 71 74 75 75 74 74 71 72 71 69
2 7 7 12 14 11 23 32 36 39 40 44 45 47 50 50 51 51 52 55 57 58 64 69 70 72 73 72 74 75 75 75 75 75 73 70 72 72 70 72 74 74 75 74 74 72 72 70 68
8 5 22 8 15 10 16 29 33 38 37 41 45 43 46 48 50 50 52 55 55 58 68 69 71 72 73 73 73 74 75 76 76 75 75 72 73 74 74 74 74 74 75 74 74 73 73 72 69
7 5 4 16 13 17 16 26 37 38 40 40 39 42 48 53 53 53 51 54 54 58 64 69 71 72 73 73 73 74 75 75 73 74 73 74 73 74 74 75 75 75 76 75 74 74 73 72 70
Lifted_Index
-6 -6 -6 -5 -2 -0 0 0 1 1 1 1 1 1 2 2 2 2 1 -0 -1 -1 -2 -3 -3 -2 -2 -2 -2 -2 -1 -1 -2 -2 -2 -2 -2 -2 -2 -2 -2 -3 -3 -3 -3 -3 -3 -3 -3
-7 -7 -6 -5 -2 -0 -0 -0 1 1 1 1 1 1 1 2 2 1 0 -1 -2 -2 -2 -3 -3 -2 -2 -2 -2 -2 -1 -1 -2 -2 -2 -2 -2 -2 -2 -2 -2 -2 -2 -2 -3 -3 -3 -3 -3
-8 -7 -6 -4 -2 -1 -1 -1 0 1 1 0 0 1 1 1 1 0 -1 -2 -3 -2 -2 -3 -3 -2 -2 -2 -2 -2 -1 -2 -2 -2 -2 -2 -2 -2 -2 -2 -2 -2 -2 -2 -2 -2 -2 -2 -2
-7 -6 -5 -3 -1 -1 -1 -0 0 1 0 -0 -0 -0 0 0 -0 -1 -2 -3 -3 -3 -3 -3 -3 -3 -2 -2 -2 -2 -2 -2 -2 -2 -2 -2 -2 -2 -2 -2 -2 -2 -2 -2 -2 -1 -1 -1 -1
-5 -5 -3 -1 -1 -1 -1 -0 -0 0 0 -1 -1 -1 -1 -1 -1 -2 -2 -3 -3 -3 -4 -4 -4 -3 -3 -3 -2 -2 -2 -2 -2 -2 -2 -2 -2 -2 -2 -2 -2 -2 -2 -2 -2 -2 -1 -1 -1
-3 -3 -1 0 0 -0 -1 -0 -0 0 0 -0 -1 -1 -1 -1 -2 -2 -3 -3 -3 -3 -4 -4 -4 -4 -3 -3 -3 -2 -2 -2 -2 -2 -2 -2 -3 -3 -3 -3 -3 -3 -2 -2 -2 -2 -1 -1 -1
-2 -2 -0 1 1 1 -0 -0 0 0 0 0 0 0 -0 -1 -2 -2 -2 -3 -3 -3 -3 -4 -4 -4 -4 -3 -3 -3 -3 -3 -3 -3 -3 -3 -3 -3 -3 -3 -3 -3 -3 -2 -2 -2 -2 -1 -1
-2 -1 -0 1 2 1 1 1 1 1 1 1 1 1 0 -0 -1 -1 -2 -2 -2 -3 -3 -3 -4 -3 -3 -3 -3 -3 -3 -3 -3 -3 -3 -3 -3 -3 -3 -3 -3 -3 -3 -3 -2 -2 -2 -2 -2
-2 -1 0 1 1 1 1 1 1 1 1 1 1 1 1 0 0 -0 -1 -1 -2 -2 -2 -3 -3 -3 -3 -3 -3 -3 -3 -3 -3 -3 -3 -3 -3 -3 -3 -3 -2 -2 -3 -3 -3 -3 -3 -3 -2
-1 -0 0 1 1 1 1 1 1 1 1 1 1 1 1 1 1 1 0 -0 -1 -1 -2 -2 -2 -2 -2 -3 -3 -3 -3 -3 -3 -3 -3 -2 -2 -2 -3 -2 -2 -1 -2 -3 -3 -3 -3 -2 -2
-1 -0 0 0 1 1 1 1 1 1 1 1 1 1 1 1 1 1 1 0 -0 -1 -1 -1 -1 -2 -2 -3 -3 -3 -3 -3 -3 -3 -3 -2 -2 -2 -2 -2 -2 -2 -1 -2 -2 -3 -2 -2 -2
-0 -1 -1 -0 0 1 1 0 0 0 0 0 0 1 1 1 1 1 1 1 0 -0 -1 -1 -1 -1 -2 -2 -2 -2 -2 -2 -2 -3 -3 -3 -2 -2 -2 -2 -2 -2 -2 -1 -2 -2 -2 -2 -2
-1 -1 -1 -1 -0 -0 0 -0 0 0 0 0 0 1 1 1 1 1 1 1 1 0 -1 -1 -1 -1 -2 -2 -2 -2 -2 -3 -3 -3 -3 -3 -2 -2 -2 -2 -2 -2 -2 -1 -2 -2 -2 -2 -2
-1 -1 -1 -1 -1 -1 -1 -0 0 0 0 0 0 1 1 1 1 1 1 1 0 -0 -1 -1 -1 -1 -2 -2 -2 -3 -3 -3 -3 -4 -4 -4 -3 -3 -3 -3 -3 -2 -2 -2 -2 -2 -2 -2 -2
-1 -1 -1 -1 -2 -2 -1 -1 -0 0 0 1 1 1 1 1 1 1 1 0 -0 -1 -1 -2 -2 -2 -2 -2 -2 -3 -3 -4 -4 -4 -4 -4 -4 -4 -4 -3 -3 -3 -3 -2 -2 -2 -2 -2 -2
-0 -0 -1 -2 -2 -2 -2 -2 -1 -0 0 1 1 1 1 1 1 1 0 -0 -0 -1 -2 -2 -2 -2 -2 -2 -3 -3 -3 -3 -4 -4 -4 -4 -4 -4 -4 -4 -3 -3 -3 -3 -2 -2 -2 -2 -2
0 -0 -1 -2 -2 -2 -2 -2 -1 -0 0 0 0 0 0 1 1 1 0 0 -0 -1 -2 -3 -3 -3 -3 -3 -4 -4 -4 -3 -3 -3 -3 -3 -3 -4 -4 -4 -4 -3 -3 -3 -3 -2 -2 -2 -2
0 -0 -1 -2 -2 -3 -3 -2 -1 -0 0 0 0 -0 -0 -0 -0 0 0 -0 -1 -1 -2 -3 -3 -4 -4 -4 -4 -4 -4 -4 -3 -3 -2 -3 -3 -4 -4 -3 -3 -3 -3 -3 -3 -2 -2 -2 -2
0 0 -0 -1 -2 -2 -2 -2 -1 -1 -0 -0 -0 -1 -1 -1 -1 -1 -1 -1 -1 -2 -2 -3 -4 -5 -5 -5 -5 -4 -4 -4 -4 -3 -3 -4 -4 -5 -4 -3 -3 -3 -3 -3 -3 -3 -2 -2 -2
0 0 0 -0 -1 -1 -1 -1 -1 -1 -1 -1 -0 -1 -1 -1 -1 -1 -2 -2 -2 -2 -2 -3 -4 -5 -5 -5 -5 -5 -5 -4 -4 -4 -4 -5 -5 -5 -4 -4 -4 -3 -2 -3 -3 -3 -3 -2 -2
-0 -0 0 -0 -0 -1 -1 -2 -2 -2 -2 -1 -1 -1 -1 -1 -1 -2 -2 -3 -3 -3 -3 -4 -5 -5 -5 -5 -5 -5 -5 -4 -3 -3 -4 -6 -6 -5 -5 -5 -4 -4 -3 -3 -3 -3 -3 -3 -2
-0 -0 -0 -0 -1 -1 -2 -2 -2 -2 -2 -2 -1 -1 -1 -1 -1 -2 -2 -3 -3 -3 -3 -4 -5 -5 -5 -5 -6 -5 -5 -5 -4 -4 -4 -6 -6 -6 -6 -5 -5 -4 -4 -3 -2 -2 -3 -3 -3
-0 -0 -0 -0 -1 -1 -1 -1 -2 -1 -2 -2 -2 -2 -1 -1 -1 -2 -2 -3 -3 -4 -4 -5 -6 -6 -5 -6 -6 -6 -5 -5 -5 -6 -6 -6 -7 -6 -6 -6 -5 -5 -4 -3 -2 -2 -3 -3 -3
0 0 0 -0 -1 -0 -0 -1 -1 -0 -1 -1 -2 -2 -1 -1 -1 -1 -2 -2 -3 -4 -5 -5 -6 -6 -6 -6 -6 -6 -6 -5 -6 -6 -6 -7 -6 -6 -6 -6 -6 -5 -5 -4 -3 -2 -3 -3 -3
1 1 0 -0 -0 -0 -0 -0 -0 0 0 -0 -1 -1 -1 -1 -1 -1 -2 -2 -3 -4 -5 -6 -6 -6 -7 -7 -7 -7 -7 -6 -6 -6 -6 -6 -6 -5 -6 -6 -6 -6 -6 -5 -4 -3 -3 -3 -3
2 1 1 0 -0 -0 -1 -0 0 1 1 1 1 -0 -1 -2 -2 -2 -2 -3 -3 -4 -5 -6 -7 -7 -7 -7 -7 -7 -7 -7 -7 -6 -6 -6 -6 -6 -6 -6 -7 -7 -6 -6 -5 -5 -4 -4 -3
2 1 1 0 -0 -1 -1 -0 1 1 1 1 1 -1 -2 -3 -3 -2 -2 -3 -4 -4 -6 -7 -7 -7 -8 -8 -8 -8 -8 -8 -7 -7 -6 -6 -6 -6 -6 -6 -7 -7 -7 -7 -6 -5 -5 -4 -4
1 1 0 -0 -0 -1 -1 -0 0 1 2 2 1 -1 -3 -3 -3 -3 -3 -3 -4 -5 -6 -8 -8 -8 -8 -8 -9 -9 -8 -8 -8 -8 -7 -6 -6 -6 -6 -6 -7 -7 -7 -7 -7 -6 -6 -5 -4
1 1 0 -0 -0 -1 -1 -0 -0 0 1 1 0 -1 -3 -3 -3 -3 -3 -3 -4 -5 -7 -8 -9 -9 -9 -9 -9 -9 -9 -9 -9 -8 -8 -7 -7 -7 -7 -7 -7 -8 -8 -8 -7 -7 -6 -5 -5
0 0 0 -0 -0 -1 -1 -0 0 0 0 1 -0 -1 -2 -3 -3 -3 -3 -3 -3 -5 -7 -8 -9 -9 -9 -9 -9 -9 -10 -10 -10 -9 -9 -8 -8 -8 -8 -8 -8 -8 -8 -8 -7 -7 -6 -6 -5